CAPE
0 65 0 0 5 50 290 568 522 405 476 556 470 123 94 202 435 740 828 880 783 733 597 497 552 622 714 721 700 584 561 718 745 609 404 398 415 461 479 454 457 484 605
0 57 0 0 0 0 65 250 442 420 431 491 273 80 87 250 487 578 559 587 655 624 635 663 851 672 420 248 220 276 201 129 149 247 248 246 236 254 256 185 160 305 324
6 47 0 0 0 0 0 10 193 294 327 152 6 0 4 40 161 248 313 424 535 550 571 558 712 578 205 46 20 31 157 130 23 13 53 145 192 188 119 114 134 141 123
9 39 0 0 0 0 0 0 0 28 34 2 0 0 0 14 80 206 267 313 478 597 572 519 450 542 342 183 45 225 551 360 322 294 306 186 136 248 142 108 158 125 47
7 24 0 0 0 0 0 13 42 28 12 0 0 5 7 0 14 136 170 222 376 512 538 482 330 174 298 292 307 324 282 167 109 132 390 609 271 167 214 145 104 113 82
0 4 0 0 0 0 0 0 12 116 49 22 22 23 15 2 0 0 25 121 278 481 549 606 324 47 9 49 91 106 70 34 7 122 22 60 521 172 196 126 0 0 0
0 7 0 0 0 0 0 0 0 20 42 32 47 11 7 8 0 0 0 12 94 240 376 430 277 36 0 0 0 0 0 0 30 16 0 0 691 295 334 76 0 0 0
0 5 16 0 0 0 0 0 0 0 0 14 43 33 29 4 0 0 0 3 82 193 256 316 277 129 35 13 1 0 0 0 0 0 0 0 0 299 659 415 0 0 0
0 2 32 5 0 0 0 0 0 0 0 0 10 86 74 32 4 0 0 0 1 52 139 175 205 183 113 48 16 0 0 0 0 0 0 0 0 4 561 840 122 0 0
0 0 0 42 9 0 0 0 0 0 0 0 0 13 67 58 23 0 0 0 0 3 37 109 161 143 97 42 10 0 0 0 0 0 0 0 0 0 418 615 458 150 0
19 13 38 34 35 13 0 0 0 0 0 0 0 0 15 92 94 91 24 2 0 6 31 55 83 89 76 57 24 0 0 0 0 0 0 0 0 0 46 503 807 579 203
0 0 19 63 82 88 35 11 38 67 78 72 72 85 63 110 121 86 67 3 3 20 21 27 37 58 74 99 63 2 1 0 0 0 0 0 0 0 0 0 573 963 648
0 0 0 18 72 77 69 90 128 114 127 133 118 110 124 103 99 56 98 71 111 69 106 59 61 58 46 54 8 2 0 0 0 0 0 0 0 0 0 0 0 78 896
0 0 0 0 41 81 122 90 100 109 123 70 66 100 88 52 27 20 39 43 84 67 68 74 32 19 3 0 0 0 0 0 0 0 0 0 0 0 0 0 0 38 687
0 0 0 0 0 39 92 111 112 129 105 92 83 87 101 38 9 1 0 6 0 6 2 1 0 0 0 0 0 0 0 0 0 0 0 0 0 0 0 0 0 0 338
0 0 0 0 0 8 9 27 96 117 114 99 72 89 130 120 57 6 0 0 0 0 0 0 0 0 0 0 0 0 0 2 19 17 33 32 0 0 0 0 0 0 72
0 0 0 0 0 0 7 8 26 49 42 32 39 77 103 134 96 9 0 0 0 0 0 0 0 0 0 0 0 0 0 16 41 66 60 78 110 0 0 10 17 58 37
135 85 69 8 0 0 0 7 8 19 30 26 29 74 85 101 131 45 0 0 0 0 0 0 0 0 0 0 1 6 18 70 107 120 143 144 192 236 153 42 100 121 148
217 314 320 263 136 10 0 0 0 1 2 17 13 22 28 76 104 70 34 0 11 0 0 0 0 0 8 49 90 124 173 185 201 221 297 378 382 255 297 314 131 133 166
12 214 370 520 477 342 92 0 0 0 0 0 0 1 5 37 59 55 60 54 19 2 9 26 46 109 122 260 293 304 414 447 451 556 598 495 514 497 416 381 406 325 114
0 0 29 327 489 618 371 138 15 19 0 0 0 0 0 0 2 9 2 0 2 15 59 134 235 313 444 375 489 773 851 795 752 573 577 635 633 544 528 461 460 455 415
0 0 0 13 444 723 655 465 249 208 115 44 20 4 3 0 0 0 0 0 6 43 107 210 403 736 785 769 1007 1054 1042 1213 1065 768 659 679 561 463 514 470 491 484 460
9 2 0 0 4 656 854 741 578 564 401 328 201 137 81 20 22 5 0 3 92 136 229 334 501 808 1265 880 691 1100 1120 1106 1212 1185 968 823 734 676 614 638 591 513 384
27 36 1 0 0 227 1004 954 814 743 793 877 671 470 362 168 137 53 47 75 149 331 398 495 780 874 903 1278 808 843 1017 1210 1021 880 1195 1046 921 652 585 530 446 382 318
12 113 96 3 0 0 641 1032 1012 975 1034 1165 1117 869 755 437 365 222 459 244 185 492 598 969 1237 1118 1074 1282 1288 1141 991 1082 1082 861 351 663 670 594 481 337 309 334 232
11 92 253 169 94 166 2 871 1164 1091 1138 1209 1274 1284 1143 998 699 718 556 321 600 803 1112 1280 1369 1180 1165 1153 1129 1045 966 924 1024 776 561 471 307 247 317 320 183 153 21
CIN
-0 -437 -0 -0 -265 -449 -332 -252 -252 -263 -257 -242 -259 -386 -425 -363 -272 -180 -146 -133 -157 -167 -199 -227 -203 -173 -146 -143 -142 -169 -160 -83 -61 -96 -167 -164 -151 -126 -120 -130 -125 -110 -62
-0 -472 -0 -0 -0 -0 -437 -346 -279 -266 -259 -249 -309 -442 -465 -377 -280 -234 -228 -219 -195 -202 -195 -183 -132 -184 -271 -350 -363 -332 -378 -419 -390 -309 -287 -286 -294 -279 -275 -346 -377 -241 -221
-257 -501 -0 -0 -0 -0 -0 -414 -357 -284 -274 -359 -450 -0 -495 -515 -437 -389 -348 -301 -247 -231 -220 -228 -178 -217 -404 -557 -584 -563 -424 -452 -611 -634 -532 -357 -312 -347 -420 -433 -414 -405 -413
-228 -522 -0 -0 -0 -0 -0 -0 -0 -404 -386 -159 -0 -0 -0 -579 -495 -406 -370 -350 -278 -224 -222 -240 -267 -234 -320 -419 -545 -373 -198 -273 -301 -318 -277 -343 -367 -296 -391 -438 -366 -389 -497
-296 -524 -0 -0 -0 -0 -0 -247 -407 -411 -393 -0 -0 -463 -491 -0 -428 -432 -414 -382 -315 -267 -252 -264 -320 -417 -338 -332 -315 -306 -321 -403 -458 -414 -231 -146 -253 -332 -307 -388 -425 -401 -427
-0 -127 -0 -0 -0 -0 -0 -0 -293 -348 -398 -468 -468 -477 -494 -555 -0 -14 -534 -437 -338 -259 -234 -226 -323 -522 -633 -546 -485 -479 -516 -541 -594 -363 -496 -326 -175 -323 -314 -401 -15 -15 -11
-0 -437 -0 -0 -0 -0 -0 -0 -0 -344 -498 -513 -499 -563 -567 -576 -0 -0 -0 -623 -486 -362 -291 -268 -320 -515 -0 -0 -0 -0 -0 -0 -484 -486 -0 -0 -104 -246 -228 -417 -0 -0 -0
-0 -328 -421 -0 -0 -0 -0 -0 -0 -0 -0 -348 -517 -528 -550 -314 -0 -0 -0 -518 -513 -407 -361 -328 -342 -430 -544 -598 -320 -0 -0 -0 -0 -0 -0 -0 -0 -235 -102 -176 -0 -0 -0
-0 -107 -436 -252 -0 -0 -0 -0 -0 -0 -0 -0 -417 -484 -510 -579 -547 -0 -0 -0 -120 -566 -453 -417 -394 -410 -472 -550 -608 -0 -0 -0 -0 -0 -0 -0 -0 -28 -125 -61 -275 -0 -0
-0 -0 -0 -446 -199 -0 -0 -0 -0 -0 -0 -0 -0 -545 -476 -523 -605 -31 -0 -0 -0 -703 -637 -511 -443 -454 -515 -601 -684 -0 -0 -0 -0 -0 -0 -0 -0 -0 -141 -90 -126 -234 -6
-603 -588 -549 -498 -473 -204 -0 -0 -0 -0 -0 -0 -0 -0 -582 -458 -485 -526 -644 -316 -0 -681 -620 -579 -544 -519 -521 -559 -622 -181 -0 -0 -0 -0 -0 -0 -0 -0 -102 -101 -42 -85 -196
-0 -0 -586 -548 -505 -473 -454 -267 -432 -416 -438 -468 -466 -450 -485 -462 -474 -518 -534 -319 -556 -646 -607 -592 -573 -527 -499 -402 -437 -378 -341 -0 -0 -0 -0 -0 -0 -0 -0 -0 -88 -22 -69
-0 -0 -0 -615 -567 -526 -474 -445 -405 -414 -409 -395 -429 -443 -434 -466 -487 -536 -468 -506 -465 -512 -442 -510 -490 -474 -455 -424 -474 -481 -0 -0 -0 -0 -0 -0 -0 -0 -0 -0 -0 -303 -26
-0 -0 -0 -0 -598 -556 -499 -502 -454 -439 -431 -460 -454 -443 -445 -500 -549 -560 -534 -486 -430 -429 -399 -406 -435 -457 -438 -0 -0 -0 -0 -0 -0 -0 -0 -0 -0 -0 -0 -0 -0 -306 -67
-0 -0 -0 -0 -0 -533 -556 -514 -484 -467 -467 -453 -439 -450 -449 -478 -510 -213 -0 -506 -0 -294 -298 -288 -0 -0 -0 -0 -0 -0 -0 -0 -0 -0 -0 -0 -0 -0 -0 -0 -0 -0 -165
-0 -0 -0 -0 -0 -624 -601 -603 -552 -518 -498 -484 -479 -466 -445 -437 -469 -531 -0 -0 -0 -0 -0 -0 -0 -0 -0 -0 -0 -0 -0 -180 -374 -371 -324 -316 -0 -0 -0 -0 -0 -53 -285
-0 -0 -0 -0 -0 -0 -684 -651 -647 -629 -595 -579 -555 -522 -505 -483 -486 -527 -0 -0 -0 -0 -0 -0 -0 -0 -0 -0 -0 -0 -0 -380 -354 -333 -323 -325 -285 -0 -0 -423 -396 -339 -359
-305 -327 -393 -407 -0 -0 -0 -717 -714 -699 -692 -661 -631 -579 -562 -523 -487 -522 -0 -0 -0 -0 -0 -0 -0 -0 -0 -0 -86 -417 -408 -371 -343 -347 -354 -343 -308 -273 -330 -431 -369 -343 -300
-287 -324 -339 -424 -426 -241 -0 -0 -0 -362 -427 -738 -691 -678 -657 -581 -550 -549 -535 -0 -490 -0 -0 -0 -0 -0 -464 -383 -355 -355 -339 -330 -311 -316 -309 -297 -334 -369 -296 -267 -369 -341 -305
-218 -320 -344 -398 -451 -492 -580 -0 -0 -0 -0 -0 -0 -189 -314 -701 -618 -581 -505 -493 -505 -369 -410 -484 -430 -369 -380 -265 -245 -275 -242 -241 -252 -245 -282 -311 -309 -280 -307 -275 -269 -311 -409
-0 -0 -443 -395 -447 -515 -562 -634 -709 -658 -0 -0 -0 -0 -0 -0 -470 -562 -371 -1 -490 -479 -426 -350 -289 -246 -204 -259 -151 -128 -150 -176 -226 -286 -250 -251 -252 -263 -274 -246 -220 -243 -254
-0 -0 -0 -433 -471 -526 -532 -592 -602 -608 -670 -714 -793 -881 -835 -0 -0 -0 -0 -0 -398 -394 -345 -277 -203 -130 -136 -127 -35 -42 -91 -97 -138 -201 -218 -210 -227 -267 -274 -277 -253 -243 -247
-559 -400 -0 -0 -141 -553 -544 -541 -556 -491 -550 -599 -680 -731 -745 -692 -572 -588 -0 -132 -332 -292 -235 -150 -130 -107 -55 -109 -102 -17 -28 -65 -83 -97 -159 -169 -181 -212 -204 -178 -191 -199 -220
-692 -754 -646 -0 -0 -604 -524 -483 -525 -497 -430 -479 -547 -570 -559 -586 -483 -457 -362 -284 -295 -254 -195 -116 -58 -84 -84 -16 -76 -91 -57 -28 -25 -100 -119 -121 -124 -167 -161 -153 -160 -153 -154
-670 -705 -704 -628 -29 -0 -560 -511 -512 -473 -458 -384 -384 -436 -408 -434 -394 -357 -276 -353 -278 -162 -140 -53 -32 -57 -63 -25 -27 -48 -58 -27 -13 -9 -38 -107 -107 -102 -117 -135 -142 -125 -115
-625 -624 -579 -609 -686 -719 -51 -537 -458 -456 -401 -344 -297 -261 -250 -236 -257 -218 -264 -314 -185 -85 -32 -15 -29 -37 -39 -34 -29 -28 -28 -18 -15 -10 -4 -2 -11 -82 -79 -111 -137 -91 -124
Wind_Speed
24 27 29 28 29 30 30 29 29 30 29 28 28 28 28 28 28 27 25 23 21 21 22 22 22 23 23 24 25 24 25 25 25 25 26 26 25 25 25 24 24 24 23
23 26 27 27 28 30 29 27 28 28 28 28 28 28 27 27 26 25 24 23 21 20 20 21 21 22 22 21 21 21 22 23 23 24 24 25 24 24 23 23 23 22 22
24 24 25 26 26 28 29 27 26 27 28 27 27 27 26 25 24 23 22 20 20 20 20 20 20 20 19 19 19 19 19 19 20 21 22 22 22 22 22 22 22 21 21
24 24 22 23 24 26 27 25 24 26 26 26 25 24 23 22 21 20 19 18 18 18 18 18 17 17 17 17 17 17 17 16 17 18 19 19 20 20 21 20 20 20 20
24 24 22 20 19 20 20 19 16 17 20 21 22 22 20 19 19 19 17 16 16 17 17 16 16 15 15 14 14 14 14 15 15 15 16 16 17 17 18 18 18 18 18
24 24 22 21 19 18 18 18 18 11 13 18 19 19 18 19 17 16 16 16 15 15 15 14 13 13 13 12 12 12 12 13 13 13 14 15 12 14 14 15 16 16 16
22 24 22 20 18 17 17 17 16 16 17 16 17 17 17 16 15 15 15 15 15 14 13 12 12 11 11 11 10 10 10 11 12 13 13 14 11 10 10 11 12 13 13
19 20 21 20 15 14 15 16 17 16 16 16 16 15 14 13 13 14 14 14 13 12 12 11 10 9 8 8 8 8 9 10 11 12 13 13 14 7 6 8 9 10 10
16 17 17 19 18 9 11 14 15 14 15 15 16 14 12 11 11 12 12 11 10 9 9 8 8 7 6 6 6 7 9 10 12 14 15 14 14 9 4 5 6 7 7
14 15 17 17 17 13 8 10 13 13 13 13 12 11 8 6 7 8 8 8 7 7 6 5 5 4 4 4 5 8 11 13 12 15 15 16 18 17 6 6 5 6 5
13 15 15 16 16 17 10 12 9 10 11 12 12 11 7 3 4 5 5 4 5 3 3 2 2 2 3 5 6 9 13 14 17 17 18 18 18 17 14 9 8 7 7
12 15 15 15 16 13 12 11 14 13 9 8 7 7 7 5 4 4 3 3 2 1 2 2 3 5 7 9 11 11 12 15 17 20 20 18 18 19 17 14 11 9 8
10 10 13 13 14 16 14 10 11 17 16 14 11 9 8 8 10 9 11 8 6 5 6 6 7 7 8 10 12 13 15 17 19 20 20 18 18 17 16 14 13 11 10
9 11 11 12 11 13 14 14 12 12 16 17 16 14 13 13 13 13 12 12 11 10 9 9 10 10 10 11 12 13 15 17 18 20 21 18 16 15 15 14 13 13 11
11 10 12 12 12 10 11 12 14 13 12 14 17 16 15 15 16 15 15 14 14 13 12 12 12 12 12 12 12 13 14 15 17 18 21 19 16 15 14 13 13 13 12
11 13 11 13 12 12 12 13 12 11 12 11 11 12 14 15 15 15 15 15 15 13 13 13 13 14 15 16 16 15 16 16 17 17 19 22 18 16 15 13 13 13 13
12 14 14 13 13 16 16 14 13 12 12 12 12 12 12 12 13 14 15 15 14 14 12 13 14 14 16 16 16 15 15 15 16 16 17 20 22 18 14 13 13 13 14
12 13 15 15 16 17 18 16 15 14 14 14 13 13 14 13 13 14 15 15 15 14 15 15 14 14 15 15 15 14 13 14 14 15 16 18 17 19 19 16 16 17 18
14 16 16 16 18 20 20 18 18 17 17 17 16 15 15 15 15 16 17 19 19 19 17 17 17 15 16 16 15 14 13 14 16 18 17 20 19 20 24 26 24 23 24
28 22 17 16 19 20 19 19 19 20 21 21 20 20 18 17 18 18 20 25 23 21 18 17 17 17 16 19 20 19 18 19 18 14 13 12 15 12 22 15 31 27 25
34 32 25 18 18 19 20 21 22 26 24 23 23 23 22 21 20 22 21 26 27 29 26 19 19 16 16 16 21 23 24 19 14 14 14 13 13 14 14 15 16 24 18
39 38 37 29 21 21 22 21 22 22 23 24 23 24 24 23 21 20 19 18 23 28 38 27 19 16 17 16 20 24 27 25 19 17 18 19 19 19 19 19 20 23 24
42 42 42 40 31 17 19 22 22 24 23 22 22 23 23 23 22 19 17 14 12 17 23 19 12 13 15 14 7 16 23 26 30 23 21 22 23 23 24 25 24 26 26
44 44 44 42 37 20 16 17 19 21 24 21 22 21 21 20 21 21 18 13 14 11 13 13 11 11 10 14 13 8 13 22 29 37 28 29 28 29 30 29 30 31 31
42 44 44 41 38 32 20 18 19 21 23 28 24 23 20 19 19 19 19 18 13 11 9 8 11 10 9 13 13 18 18 21 23 27 37 35 34 31 31 31 34 34 32
43 44 43 42 39 34 28 20 19 21 23 25 25 26 23 21 19 18 18 16 13 9 8 9 13 11 11 12 13 17 20 24 28 29 34 35 36 37 36 32 32 30 29
Wind_Direction
136 132 137 136 146 135 130 122 122 124 121 119 117 117 117 118 118 117 108 94 82 76 78 77 75 75 75 77 79 74 69 67 64 67 76 76 82 83 79 77 80 64 60
125 130 131 129 135 146 136 121 122 124 125 122 123 122 119 117 115 112 104 96 86 81 78 77 80 80 76 69 68 68 65 66 61 62 66 68 68 71 67 61 62 59 58
130 128 129 128 129 137 141 128 123 125 127 124 122 122 121 118 114 110 103 96 91 88 86 85 84 79 75 72 70 66 60 55 54 57 61 56 57 61 61 60 58 60 59
133 132 128 129 126 130 135 131 125 130 130 127 122 121 119 115 111 106 101 95 92 91 88 87 82 77 76 76 74 73 59 54 56 62 58 53 53 62 65 63 62 63 62
138 138 134 130 127 123 124 119 111 113 120 122 125 122 117 112 114 112 104 97 95 97 97 91 85 78 76 70 63 60 49 47 47 60 55 63 63 64 71 70 69 69 71
145 146 141 138 134 130 129 128 123 107 112 124 126 125 120 122 115 111 111 110 106 104 101 95 87 83 80 75 67 54 45 40 42 41 39 30 73 60 67 65 61 63 65
146 155 150 146 143 140 138 135 131 130 133 132 134 131 129 124 121 122 122 122 121 117 111 104 95 91 89 85 76 63 53 35 22 20 16 14 41 59 61 55 54 57 59
141 151 157 157 152 150 147 146 145 144 144 144 142 140 135 131 130 130 131 131 127 125 123 119 112 101 87 72 67 54 37 22 14 6 1 2 3 51 57 43 39 40 43
133 147 156 162 164 170 163 159 156 154 154 154 154 150 143 140 137 140 139 135 130 128 125 122 117 107 98 81 53 26 12 5 357 349 344 345 348 6 37 28 21 22 25
134 147 159 166 170 174 235 183 171 167 165 164 163 160 155 147 145 147 145 145 140 135 131 125 114 103 69 39 20 0 347 341 342 338 338 336 332 333 346 344 348 351 359
147 153 155 164 173 178 202 252 210 192 184 179 177 177 180 207 182 170 167 160 159 148 130 113 95 44 10 356 349 341 334 331 325 325 326 327 328 328 328 322 320 319 322
161 162 161 164 171 178 188 241 255 260 245 229 224 216 206 243 247 248 258 217 237 273 313 324 332 336 335 336 335 332 330 327 323 318 318 322 322 322 321 318 311 303 298
170 166 169 168 172 178 186 214 245 264 266 264 250 243 247 266 281 284 295 297 296 295 311 312 319 322 325 327 327 326 324 322 320 320 319 319 320 320 318 314 309 299 289
188 185 182 183 184 184 185 192 209 243 261 264 263 259 265 271 278 283 288 293 297 302 306 311 318 319 320 321 322 323 323 322 322 320 318 317 317 316 313 309 304 302 285
215 208 201 195 197 200 201 200 201 208 226 253 264 262 263 269 276 280 285 289 294 299 304 309 314 318 320 320 321 322 321 322 321 322 322 320 318 314 312 308 298 297 287
245 223 228 211 213 207 209 211 213 217 218 224 238 253 256 269 274 278 282 285 290 295 301 307 313 318 320 320 319 319 319 319 321 321 321 320 319 317 312 307 304 296 290
252 262 241 238 231 217 216 218 222 229 227 228 227 226 231 238 262 272 280 284 288 294 296 303 307 313 317 320 319 319 319 318 318 319 319 318 318 315 305 297 294 290 286
272 262 266 257 242 230 225 230 235 239 237 235 244 243 231 235 245 266 277 281 286 290 295 299 303 307 312 317 321 323 323 322 319 317 318 317 314 314 313 300 292 290 290
290 286 273 256 242 231 232 235 240 247 245 247 246 245 247 247 252 260 272 280 286 290 294 297 301 304 311 315 319 324 324 323 321 319 316 313 310 310 313 310 304 298 293
304 302 288 271 247 237 244 242 245 245 249 253 246 258 255 252 255 262 273 279 284 287 289 292 296 303 306 311 314 317 317 318 316 310 304 301 305 305 311 306 306 311 301
306 305 300 288 244 262 255 245 241 230 237 253 254 254 255 260 263 267 272 280 282 282 284 287 292 297 305 311 314 316 316 319 313 315 317 316 313 316 310 312 310 312 309
306 306 302 298 284 264 255 247 254 245 250 255 260 256 255 256 265 264 270 283 287 284 272 280 282 294 304 310 313 315 317 322 326 328 327 325 323 321 315 314 312 310 308
306 306 302 299 298 262 246 265 267 271 269 264 248 257 258 256 257 252 255 271 269 279 280 274 261 284 300 312 302 323 322 321 324 331 332 326 323 322 320 318 315 313 310
302 305 303 298 295 284 258 250 251 256 259 258 268 269 269 259 253 248 234 245 262 254 250 242 281 299 311 312 321 311 318 321 322 318 324 327 325 323 322 321 319 316 313
308 305 303 301 292 290 273 250 255 257 267 276 277 274 271 266 254 238 236 268 258 242 224 270 298 306 311 315 320 326 321 320 320 318 318 319 321 324 324 323 321 320 318
312 308 305 302 294 291 283 268 262 266 271 274 276 277 276 274 262 242 250 257 264 260 282 305 303 315 321 325 326 324 323 325 324 320 318 318 319 321 322 325 325 324 324